Cloud_Cover
100 69 74 5 2 0 0 0 0 0 0 0 0 5 18 5 36 9 52 12 0 11 21 0 0 1 5 13 0 0 0 4 6 52 91 100 76 92 83 20 83 100 100 100 100 100 100 74 18
94 97 33 29 5 0 0 0 0 0 0 0 4 5 20 51 6 37 46 32 0 0 0 0 0 0 1 39 0 0 0 1 15 14 14 46 100 100 100 100 75 100 100 100 100 100 74 23 4
100 99 50 68 89 4 0 0 0 1 0 1 0 5 12 22 40 5 12 16 20 1 0 0 0 0 0 0 1 5 0 0 0 0 0 0 2 5 5 66 91 75 71 70 39 6 5 15 75
100 42 22 5 5 5 5 5 0 1 4 5 0 0 0 3 8 26 1 21 25 1 0 34 0 0 0 0 1 98 0 0 0 0 0 0 0 1 5 100 8 100 100 99 52 45 71 100 5
100 78 9 21 5 14 5 5 20 7 2 5 4 0 0 20 0 2 1 22 13 8 0 0 0 0 0 0 0 0 99 11 0 0 0 0 0 0 5 6 84 5 12 46 31 74 1 1 0
98 100 46 5 5 32 5 74 83 25 5 3 0 0 0 0 4 19 17 20 17 13 7 2 34 0 0 0 0 0 21 70 26 51 5 0 0 0 0 2 0 3 1 0 0 0 0 0 0
100 100 97 5 5 5 5 18 88 5 30 5 0 0 0 0 12 6 17 12 21 29 36 34 20 4 44 0 0 0 0 0 7 46 51 0 0 0 0 0 0 0 0 0 0 0 0 0 0
100 100 99 26 24 4 4 5 5 43 98 5 4 0 0 0 16 5 14 6 9 30 30 31 48 22 31 21 7 0 0 0 0 0 0 0 0 0 0 0 0 0 0 0 0 0 0 0 0
100 100 100 100 94 4 5 13 7 30 14 3 5 4 0 0 22 26 35 51 53 55 47 51 40 30 28 34 43 54 27 1 8 3 1 50 28 45 36 9 0 0 0 0 0 0 0 0 0
68 100 100 100 100 5 23 74 96 100 100 78 5 5 0 0 14 24 46 56 54 39 42 40 36 23 31 13 18 21 61 58 73 39 63 73 48 33 29 32 0 0 0 0 0 0 0 36 60
100 100 100 100 100 100 100 100 100 100 100 88 100 95 5 5 5 3 5 5 7 6 14 18 16 23 34 31 31 30 27 35 36 18 13 25 23 40 33 58 26 33 26 27 24 33 36 38 44
100 100 100 100 100 5 100 100 100 100 73 34 74 100 87 6 5 2 1 5 5 5 5 5 5 10 17 17 17 19 14 22 20 16 12 14 19 17 11 20 67 86 96 66 93 65 50 26 22
100 99 100 100 100 51 100 100 100 40 50 97 57 96 33 6 5 5 2 19 7 5 5 5 5 5 5 5 5 3 0 5 6 17 11 0 24 24 27 23 30 49 24 9 54 97 100 100 100
99 100 100 100 79 99 67 97 70 91 96 97 67 33 100 99 100 100 68 8 5 5 32 26 18 5 5 5 5 5 3 0 2 9 16 18 12 30 55 83 98 55 67 49 0 0 18 98 100
61 92 75 57 100 74 99 100 99 100 94 100 72 13 100 93 99 97 24 2 5 5 5 13 68 30 5 5 5 5 5 5 1 6 20 20 39 37 5 90 15 57 38 95 99 100 98 97 24
100 97 99 99 82 46 100 100 100 100 99 7 74 84 29 100 100 96 6 5 5 7 6 33 14 54 43 5 53 7 5 14 13 5 5 5 24 47 50 5 17 5 5 36 99 39 94 100 100
100 100 98 97 69 62 47 100 67 100 63 6 19 80 75 96 100 99 23 49 30 5 5 12 7 27 95 84 10 41 18 5 5 5 10 5 5 18 65 37 8 5 5 5 5 18 75 92 84
100 100 100 100 100 71 5 64 6 91 98 7 44 100 100 100 100 55 42 45 65 70 11 6 16 60 84 98 68 12 17 5 5 5 30 52 63 22 34 81 18 9 5 39 54 10 5 61 7
100 81 100 97 50 84 92 94 57 5 66 90 100 100 100 100 100 100 84 20 5 43 23 99 97 21 39 92 100 100 44 8 11 55 76 45 69 94 100 87 60 69 89 83 75 74 58 66 50
100 100 100 97 76 79 47 36 8 6 20 100 89 100 94 6 97 100 66 10 100 79 100 38 17 36 82 61 50 79 99 100 97 64 67 92 77 71 75 86 100 99 92 68 86 99 100 99 99
100 100 100 100 100 83 12 7 5 3 5 43 5 6 6 66 89 71 6 16 100 99 14 33 48 88 97 100 83 41 100 89 98 100 100 100 98 96 99 99 93 98 100 100 100 100 100 100 100
100 100 100 100 100 100 100 26 64 5 22 66 27 33 58 62 43 79 59 13 92 26 16 69 75 73 41 87 82 75 100 100 99 100 100 100 100 100 100 100 100 100 100 100 100 100 100 100 100
100 100 100 100 100 100 100 100 100 100 86 94 100 97 92 100 46 14 5 7 5 4 5 5 29 50 100 83 14 61 82 100 100 100 100 100 98 100 99 100 99 96 100 98 100 100 100 100 100
100 100 100 100 100 68 96 99 100 100 100 100 100 98 100 100 100 100 89 100 100 99 82 38 5 5 28 67 33 76 98 100 99 84 99 100 100 100 100 100 100 100 44 62 45 58 56 69 30
94 100 99 100 84 5 97 100 100 100 100 100 100 100 99 100 100 100 100 100 100 100 100 100 100 86 77 99 100 100 100 100 99 100 100 99 100 100 96 94 95 79 92 85 92 65 84 54 88
100 100 100 100 38 4 5 2 42 75 92 100 90 99 92 20 14 96 100 100 100 100 100 100 100 100 100 100 100 100 100 100 100 100 100 100 100 100 100 100 100 98 99 23 20 7 32 27 86
100 76 100 100 6 5 5 5 78 90 100 100 14 8 9 29 91 96 11 30 72 99 100 100 100 100 100 100 100 100 100 100 100 100 100 100 100 100 100 100 96 18 18 59 99 89 100 100 100
100 100 100 82 50 14 5 5 43 100 100 100 100 91 91 93 100 96 58 44 64 96 100 100 100 100 100 100 100 100 100 100 100 100 100 100 100 94 100 100 96 81 45 81 83 64 19 26 56
100 100 100 100 100 98 67 9 90 100 100 100 65 75 72 36 8 5 30 13 9 12 5 5 5 5 5 8 15 76 92 76 44 60 86 96 97 100 100 76 80 94 84 97 78 89 70 90 56
51 23 45 67 100 100 92 16 35 100 89 94 100 100 100 45 6 19 18 13 6 12 14 14 70 97 97 93 82 29 21 32 41 58 91 95 98 86 64 45 84 100 100 100 100 100 100 95 99